Time,TemperatureF,DewpointF,PressureIn,WindDirection,WindDirectionDegrees,WindSpeedMPH,WindSpeedGustMPH,Humidity,HourlyPrecipIn,Conditions,Clouds,dailyrainin,SolarRadiationWatts/m^2,SoftwareType,DateUTC
2014-02-14 00:02:00,34.0,22.0,-100.00,SSW,196,2.0,8.0,61,0.00,,,0.30,0.000000,,2014-02-14 05:02:00,
2014-02-14 04:10:00,37.0,21.0,-100.00,WSW,254,4.0,18.0,52,-99.99,,,0.30,0.000000,,2014-02-14 09:10:00,
2014-02-14 04:41:00,37.0,21.0,-100.00,WSW,254,4.0,18.0,52,-99.99,,,0.30,0.000000,,2014-02-14 09:41:00,
2014-02-14 04:54:00,37.0,21.0,-100.00,WSW,254,4.0,18.0,52,-99.99,,,0.30,0.000000,,2014-02-14 09:54:00,
2014-02-14 05:03:00,37.0,21.0,-100.00,WSW,254,4.0,18.0,52,-99.99,,,0.30,0.000000,,2014-02-14 10:03:00,
2014-02-14 05:10:00,36.0,22.0,-100.00,WSW,248,4.0,13.0,57,0.00,,,0.30,0.000000,,2014-02-14 10:10:00,
2014-02-14 05:43:00,36.0,22.0,-100.00,WSW,248,4.0,13.0,57,0.00,,,0.30,0.000000,,2014-02-14 10:43:00,
2014-02-14 05:53:00,36.0,22.0,-100.00,WSW,248,4.0,13.0,57,0.00,,,0.30,0.000000,,2014-02-14 10:53:00,
2014-02-14 06:03:00,36.0,22.0,-100.00,WSW,248,4.0,13.0,57,0.00,,,0.30,0.000000,,2014-02-14 11:03:00,
2014-02-14 06:10:00,36.0,23.0,-100.00,WSW,237,4.0,14.0,58,0.00,,,0.30,0.000000,,2014-02-14 11:10:00,
2014-02-14 06:42:00,36.0,23.0,-100.00,WSW,237,4.0,14.0,58,0.00,,,0.30,0.000000,,2014-02-14 11:42:00,
2014-02-14 06:53:00,36.0,23.0,-100.00,WSW,237,4.0,14.0,58,0.00,,,0.30,0.000000,,2014-02-14 11:53:00,
2014-02-14 07:02:00,36.0,23.0,-100.00,WSW,237,4.0,14.0,58,0.00,,,0.30,0.000000,,2014-02-14 12:02:00,
2014-02-14 07:10:00,35.0,25.0,-100.00,SW,226,5.0,11.0,67,0.00,,,0.30,0.000000,,2014-02-14 12:10:00,
2014-02-14 07:42:00,35.0,25.0,-100.00,SW,226,5.0,11.0,67,0.00,,,0.30,0.000000,,2014-02-14 12:42:00,
2014-02-14 07:52:00,35.0,25.0,-100.00,SW,226,5.0,11.0,67,0.00,,,0.30,0.000000,,2014-02-14 12:52:00,
2014-02-14 08:02:00,35.0,25.0,-100.00,SW,226,5.0,11.0,67,0.00,,,0.30,0.000000,,2014-02-14 13:02:00,
2014-02-14 08:10:00,36.0,23.0,-100.00,SSW,213,4.0,16.0,59,0.00,,,0.30,0.000000,,2014-02-14 13:10:00,
2014-02-14 08:52:00,36.0,23.0,-100.00,SSW,213,4.0,16.0,59,0.00,,,0.30,0.000000,,2014-02-14 13:52:00,
2014-02-14 09:02:00,36.0,23.0,-100.00,SSW,213,4.0,16.0,59,0.00,,,0.30,0.000000,,2014-02-14 14:02:00,
2014-02-14 09:10:00,46.0,23.0,-100.00,SW,221,6.0,15.0,40,0.00,,,0.30,15.000000,,2014-02-14 14:10:00,
2014-02-14 10:10:00,51.0,22.0,-100.00,NW,317,5.0,19.0,32,0.10,,,0.40,206.000000,,2014-02-14 15:10:00,
2014-02-14 10:54:00,51.0,22.0,-100.00,NW,317,5.0,19.0,32,0.10,,,0.40,206.000000,,2014-02-14 15:54:00,
2014-02-14 11:04:00,51.0,22.0,-100.00,NW,317,5.0,19.0,32,0.10,,,0.40,206.000000,,2014-02-14 16:04:00,
2014-02-14 13:10:00,61.0,21.0,-100.00,WSW,254,5.0,19.0,21,-99.99,,,0.60,803.000000,,2014-02-14 18:10:00,
2014-02-14 13:43:00,61.0,21.0,-100.00,WSW,254,5.0,19.0,21,-99.99,,,0.60,803.000000,,2014-02-14 18:43:00,
2014-02-14 13:52:00,61.0,21.0,-100.00,WSW,254,5.0,19.0,21,-99.99,,,0.60,803.000000,,2014-02-14 18:52:00,
2014-02-14 14:01:00,61.0,21.0,-100.00,WSW,254,5.0,19.0,21,-99.99,,,0.60,803.000000,,2014-02-14 19:01:00,
2014-02-14 15:10:00,59.0,29.0,-100.00,SSE,163,7.0,18.0,32,-99.99,,,0.70,812.000000,,2014-02-14 20:10:00,
2014-02-14 15:42:00,59.0,29.0,-100.00,SSE,163,7.0,18.0,32,-99.99,,,0.70,812.000000,,2014-02-14 20:42:00,
2014-02-14 15:53:00,59.0,29.0,-100.00,SSE,163,7.0,18.0,32,-99.99,,,0.70,812.000000,,2014-02-14 20:53:00,
2014-02-14 16:03:00,59.0,29.0,-100.00,SSE,163,7.0,18.0,32,-99.99,,,0.70,812.000000,,2014-02-14 21:03:00,
2014-02-14 16:10:00,58.0,29.0,-100.00,South,176,6.0,22.0,33,0.00,,,0.60,665.000000,,2014-02-14 21:10:00,
2014-02-14 16:44:00,58.0,29.0,-100.00,South,176,6.0,22.0,33,0.00,,,0.60,665.000000,,2014-02-14 21:44:00,
2014-02-14 16:54:00,58.0,29.0,-100.00,South,176,6.0,22.0,33,0.00,,,0.60,665.000000,,2014-02-14 21:54:00,
2014-02-14 17:03:00,58.0,29.0,-100.00,South,176,6.0,22.0,33,0.00,,,0.60,665.000000,,2014-02-14 22:03:00,
2014-02-14 17:10:00,52.0,32.0,-100.00,South,178,6.0,16.0,46,0.10,,,0.60,533.000000,,2014-02-14 22:10:00,
2014-02-14 17:43:00,52.0,32.0,-100.00,South,178,6.0,16.0,46,0.10,,,0.60,533.000000,,2014-02-14 22:43:00,
2014-02-14 17:53:00,52.0,32.0,-100.00,South,178,6.0,16.0,46,0.10,,,0.60,533.000000,,2014-02-14 22:53:00,
2014-02-14 18:03:00,52.0,32.0,-100.00,South,178,6.0,16.0,46,0.10,,,0.60,533.000000,,2014-02-14 23:03:00,
2014-02-14 18:10:00,48.0,32.0,-100.00,SSE,167,3.0,26.0,53,0.00,,,0.50,190.000000,,2014-02-14 23:10:00,
2014-02-14 18:43:00,48.0,32.0,-100.00,SSE,167,3.0,26.0,53,0.00,,,0.50,190.000000,,2014-02-14 23:43:00,
2014-02-14 18:53:00,48.0,32.0,-100.00,SSE,167,3.0,26.0,53,0.00,,,0.50,190.000000,,2014-02-14 23:53:00,
2014-02-14 19:02:00,48.0,32.0,-100.00,SSE,167,3.0,26.0,53,0.00,,,0.50,190.000000,,2014-02-15 00:02:00,
2014-02-14 19:10:00,46.0,31.0,-100.00,North,354,4.0,11.0,56,0.00,,,0.50,31.000000,,2014-02-15 00:10:00,
2014-02-14 19:42:00,46.0,31.0,-100.00,North,354,4.0,11.0,56,0.00,,,0.50,31.000000,,2014-02-15 00:42:00,
2014-02-14 19:52:00,46.0,31.0,-100.00,North,354,4.0,11.0,56,0.00,,,0.50,31.000000,,2014-02-15 00:52:00,
2014-02-14 20:02:00,46.0,31.0,-100.00,North,354,4.0,11.0,56,0.00,,,0.50,31.000000,,2014-02-15 01:02:00,
2014-02-14 20:10:00,46.0,31.0,-100.00,WSW,253,5.0,14.0,56,0.00,,,0.50,0.000000,,2014-02-15 01:10:00,
2014-02-14 20:43:00,46.0,31.0,-100.00,WSW,253,5.0,14.0,56,0.00,,,0.50,0.000000,,2014-02-15 01:43:00,
2014-02-14 20:52:00,46.0,31.0,-100.00,WSW,253,5.0,14.0,56,0.00,,,0.50,0.000000,,2014-02-15 01:52:00,
2014-02-14 21:02:00,46.0,31.0,-100.00,WSW,253,5.0,14.0,56,0.00,,,0.50,0.000000,,2014-02-15 02:02:00,
2014-02-14 21:10:00,46.0,33.0,-100.00,SSW,204,5.0,15.0,60,0.00,,,0.50,0.000000,,2014-02-15 02:10:00,
2014-02-14 21:42:00,46.0,33.0,-100.00,SSW,204,5.0,15.0,60,0.00,,,0.50,0.000000,,2014-02-15 02:42:00,
2014-02-14 21:52:00,46.0,33.0,-100.00,SSW,204,5.0,15.0,60,0.00,,,0.50,0.000000,,2014-02-15 02:52:00,
2014-02-14 22:02:00,46.0,33.0,-100.00,SSW,204,5.0,15.0,60,0.00,,,0.50,0.000000,,2014-02-15 03:02:00,
2014-02-14 22:10:00,45.0,33.0,-100.00,East,90,3.0,14.0,63,0.00,,,0.50,0.000000,,2014-02-15 03:10:00,
2014-02-14 22:43:00,45.0,33.0,-100.00,East,90,3.0,14.0,63,0.00,,,0.50,0.000000,,2014-02-15 03:43:00,
2014-02-14 22:53:00,45.0,33.0,-100.00,East,90,3.0,14.0,63,0.00,,,0.50,0.000000,,2014-02-15 03:53:00,
2014-02-14 23:04:00,45.0,33.0,-100.00,East,90,3.0,14.0,63,0.00,,,0.50,0.000000,,2014-02-15 04:04:00,
2014-02-14 23:10:00,45.0,33.0,-100.00,West,266,3.0,11.0,63,0.00,,,0.50,0.000000,,2014-02-15 04:10:00,
2014-02-14 23:43:00,45.0,33.0,-100.00,West,266,3.0,11.0,63,0.00,,,0.50,0.000000,,2014-02-15 04:43:00,
2014-02-14 23:52:00,45.0,33.0,-100.00,West,266,3.0,11.0,63,0.00,,,0.50,0.000000,,2014-02-15 04:52:00,